Weather History for KHQM - April, 2013

Change the Weather History Date:

Wednesday, April 17, 2013

  Actual Average Record
Temperature  
Mean Temperature 47 °F 49 °F  
Max Temperature 55 °F 56 °F 77 °F (1983)
Min Temperature 38 °F 42 °F 27 °F (1964)
Degree Days  
Heating Degree Days 18 16  
Month to date heating degree days 295 289  
Cooling Degree Days 0 0  
Month to date cooling degree days 0 0  
Year to date cooling degree days 0 0  
Moisture  
Dew Point 42 °F    
Average Humidity 83    
Maximum Humidity 100    
Minimum Humidity 66    
Precipitation  
Precipitation T in 0.17 in 0.77 in (2014)
Month to date precipitation 4.99 3.14  
Year to date precipitation 23.91 27.67  
Sea Level Pressure  
Sea Level Pressure 30.46 in    
Wind  
Wind Speed 8 mph (NE)    
Max Wind Speed 20 mph    
Max Gust Speed 24 mph    
Visibility 7 miles    
Events      
T = Trace of Precipitation, MM = Missing Value Source: NWS Daily Summary

Daily Weather History Graph

Daily Weather History Graph

Search for Another Location

Airport or City:

Trip Planner

Search our weather history database for the weather conditions in past years. The results will help you decide how hot, cold, wet, or windy it might be!

Date:

Astronomy

Apr. 17, 2013 Rise Set
Actual Time 6:23 AM PDT 8:07 PM PDT
Civil Twilight 5:51 AM PDT 8:39 PM PDT
Nautical Twilight 5:12 AM PDT 9:19 PM PDT
Astronomical Twilight 4:29 AM PDT 10:02 PM PDT
Moon 11:35 AM PDT (4/17) 1:56 AM PDT (4/17)
Length of Visible Light 14h 48m
Length of Day
13h 43m
Waxing Crescent, 43% of the Moon is Illuminated
Apr 17
Waxing Crescent
Apr 18
First Quarter
Apr 25
Full
May 2
Last Quarter
May 9
New

Hourly Weather History & Observations

Time (PDT) Temp. Windchill Dew Point Humidity Pressure Visibility Wind Dir Wind Speed Gust Speed Precip Events Conditions
12:53 AM 41.0 °F 39.0 °F 39.9 °F 96% 30.43 in 2.0 mi NE 3.5 mph - N/A   Clear
1:09 AM 39.2 °F 35.9 °F 39.2 °F 100% 30.42 in 1.5 mi ENE 4.6 mph - N/A   Partly Cloudy
1:33 AM 41.0 °F 38.0 °F 39.2 °F 93% 30.42 in 3.0 mi ENE 4.6 mph - N/A   Clear
1:53 AM 41.0 °F 39.0 °F 39.9 °F 96% 30.43 in 4.0 mi ENE 3.5 mph - N/A   Clear
2:53 AM 39.0 °F - 39.0 °F 100% 30.43 in 4.0 mi Calm Calm - N/A   Clear
3:18 AM 39.2 °F 37.0 °F 39.2 °F 100% 30.41 in 2.5 mi ENE 3.5 mph - N/A   Clear
3:44 AM 39.2 °F 35.0 °F 37.4 °F 93% 30.42 in 3.0 mi NE 5.8 mph - N/A   Partly Cloudy
3:53 AM 39.0 °F 35.7 °F 37.9 °F 96% 30.43 in 4.0 mi NE 4.6 mph - N/A   Partly Cloudy
4:16 AM 39.2 °F 37.0 °F 39.2 °F 100% 30.41 in 2.5 mi ENE 3.5 mph - N/A   Mostly Cloudy
4:53 AM 39.9 °F 37.8 °F 39.0 °F 97% 30.44 in 2.5 mi ENE 3.5 mph - N/A   Mostly Cloudy
5:12 AM 39.2 °F 35.0 °F 39.2 °F 100% 30.43 in 2.5 mi ENE 5.8 mph - N/A   Scattered Clouds
5:20 AM 39.2 °F 35.9 °F 39.2 °F 100% 30.43 in 3.0 mi ENE 4.6 mph - N/A   Scattered Clouds
5:36 AM 39.2 °F 35.9 °F 39.2 °F 100% 30.43 in 4.0 mi NE 4.6 mph - N/A   Mostly Cloudy
5:53 AM 39.9 °F 36.7 °F 39.0 °F 97% 30.45 in 4.0 mi NE 4.6 mph - N/A   Overcast
6:16 AM 41.0 °F 37.1 °F 39.2 °F 93% 30.43 in 6.0 mi ENE 5.8 mph - N/A   Overcast
6:53 AM 41.0 °F 37.1 °F 39.2 °F 93% 30.44 in 3.0 mi ENE 5.8 mph - N/A   Overcast
7:10 AM 42.8 °F 37.5 °F 41.0 °F 93% 30.44 in 1.8 mi ENE 9.2 mph - N/A   Overcast
7:33 AM 42.8 °F 38.6 °F 41.0 °F 93% 30.44 in 2.5 mi ENE 6.9 mph - N/A   Overcast
7:45 AM 42.8 °F 39.3 °F 42.8 °F 100% 30.45 in 3.0 mi ENE 5.8 mph - N/A   Overcast
7:53 AM 42.1 °F 38.4 °F 42.1 °F 100% 30.46 in 4.0 mi ENE 5.8 mph - N/A   Overcast
8:12 AM 42.8 °F 38.6 °F 41.0 °F 93% 30.45 in 5.0 mi ENE 6.9 mph - N/A   Overcast
8:37 AM 44.6 °F 40.7 °F 42.8 °F 93% 30.46 in 6.0 mi ENE 6.9 mph - N/A   Mostly Cloudy
8:53 AM 45.0 °F 41.8 °F 43.0 °F 93% 30.47 in 7.0 mi ENE 5.8 mph - N/A   Overcast
9:10 AM 46.4 °F 43.5 °F 44.6 °F 93% 30.46 in 9.0 mi ENE 5.8 mph - N/A   Overcast
9:51 AM 48.2 °F - 46.4 °F 93% 30.45 in 10.0 mi ENE 5.8 mph - N/A   Overcast
9:53 AM 48.9 °F - 46.0 °F 90% 30.47 in 10.0 mi ENE 6.9 mph - N/A   Overcast
10:09 AM 48.2 °F - 46.4 °F 93% 30.46 in 10.0 mi NE 5.8 mph - N/A   Overcast
10:18 AM 50.0 °F - 46.4 °F 87% 30.46 in 10.0 mi NE 5.8 mph - N/A   Overcast
10:53 AM 51.1 °F - 46.0 °F 83% 30.47 in 10.0 mi Calm Calm - N/A   Overcast
11:23 AM 50.0 °F - 46.4 °F 87% 30.47 in 10.0 mi WSW 8.1 mph - N/A   Overcast
11:44 AM 51.8 °F - 46.4 °F 82% 30.47 in 10.0 mi SW 6.9 mph - N/A   Mostly Cloudy
11:53 AM 52.0 °F - 46.9 °F 83% 30.48 in 10.0 mi SSW 10.4 mph - N/A   Partly Cloudy
12:09 PM 51.8 °F - 46.4 °F 82% 30.47 in 10.0 mi SSW 10.4 mph - N/A   Mostly Cloudy
12:53 PM 52.0 °F - 46.9 °F 83% 30.49 in 10.0 mi SSW 12.7 mph - N/A   Mostly Cloudy
1:08 PM 53.6 °F - 46.4 °F 77% 30.48 in 10.0 mi SSW 13.8 mph - N/A   Mostly Cloudy
1:53 PM 54.0 °F - 44.1 °F 69% 30.48 in 10.0 mi WSW 11.5 mph - N/A   Mostly Cloudy
2:12 PM 53.6 °F - 44.6 °F 72% 30.47 in 10.0 mi WSW 11.5 mph - N/A   Mostly Cloudy
2:53 PM 54.0 °F - 43.0 °F 66% 30.48 in 10.0 mi WSW 15.0 mph - N/A   Mostly Cloudy
3:53 PM 54.0 °F - 42.1 °F 64% 30.48 in 10.0 mi WSW 13.8 mph - N/A   Overcast
4:53 PM 50.0 °F - 41.0 °F 71% 30.49 in 10.0 mi West 15.0 mph - N/A   Overcast
5:53 PM 48.9 °F - 39.9 °F 71% 30.50 in 10.0 mi West 10.4 mph 19.6 mph N/A   Overcast
6:53 PM 46.9 °F - 37.9 °F 71% 30.50 in 10.0 mi West 10.4 mph 18.4 mph 0.00 in   Overcast
7:53 PM 46.0 °F 42.5 °F 39.0 °F 76% 30.50 in 10.0 mi West 6.9 mph - N/A   Overcast
8:26 PM 46.4 °F 42.9 °F 39.2 °F 76% 30.48 in 10.0 mi West 6.9 mph - N/A   Overcast
8:53 PM 46.0 °F 42.5 °F 39.0 °F 76% 30.49 in 10.0 mi WSW 6.9 mph - N/A   Overcast
9:10 PM 46.4 °F 42.9 °F 39.2 °F 76% 30.49 in 10.0 mi West 6.9 mph - N/A   Overcast
9:53 PM 46.0 °F 42.5 °F 39.0 °F 76% 30.50 in 10.0 mi WSW 6.9 mph - N/A   Overcast
10:53 PM 46.0 °F 42.5 °F 39.0 °F 76% 30.49 in 10.0 mi WSW 6.9 mph - N/A   Overcast
11:53 PM 46.0 °F 41.9 °F 39.9 °F 79% 30.48 in 10.0 mi WSW 8.1 mph - N/A   Overcast